Weather History for Cape Girardeau, MO

Change the Weather History Date:

Thursday, December 13, 2012

  Actual Average Record
Temperature  
Mean Temperature 37 °F 36 °F  
Max Temperature 50 °F 45 °F 64 °F (1984)
Min Temperature 23 °F 27 °F -3 °F (1962)
Degree Days  
Heating Degree Days 28 29  
Month to date heating degree days 206 350  
Since 1 July heating degree days 1145 1201  
Cooling Degree Days 0 0  
Month to date cooling degree days 0 0  
Year to date cooling degree days 1784 1453  
Moisture  
Dew Point 27 °F    
Average Humidity 71    
Maximum Humidity 96    
Minimum Humidity 46    
Precipitation  
Precipitation 0.00 in 0.15 in 1.45 in (1977)
Month to date precipitation 0.84 1.91  
Year to date precipitation 26.12 44.47  
Sea Level Pressure  
Sea Level Pressure 30.33 in    
Wind  
Wind Speed 4 mph (South)    
Max Wind Speed 12 mph    
Max Gust Speed 15 mph    
Visibility 10 miles    
Events      
T = Trace of Precipitation, MM = Missing Value Source: NWS Daily Summary

Daily Weather History Graph

Daily Weather History Graph

Search for Another Location

Airport:

Trip Planner

Search our weather history database for the weather conditions in past years. The results will help you decide how hot, cold, wet, or windy it might be!

Date:

Astronomy

Dec. 13, 2012 Rise Set
Actual Time 7:03 AM CST 4:41 PM CST
Civil Twilight 6:34 AM CST 5:10 PM CST
Nautical Twilight 6:02 AM CST 5:43 PM CST
Astronomical Twilight 5:30 AM CST 6:15 PM CST
Moon 7:12 AM CST (12/13) 5:23 PM CST (12/13)
Length of Visible Light 10h 35m
Length of Day
9h 37m
New Moon, 0% of the Moon is Illuminated
Dec 13
New Moon
Dec 19
First Quarter
Dec 28
Full
Jan 4
Last Quarter
Jan 11
New

Hourly Weather History & Observations

Time (CST) Temp. Windchill Dew Point Humidity Pressure Visibility Wind Dir Wind Speed Gust Speed Precip Events Conditions
12:53 AM 27.0 °F - 24.1 °F 89% 30.35 in 10.0 mi Calm Calm - N/A   Clear
2:53 AM 26.1 °F - 24.1 °F 92% 30.38 in 10.0 mi Calm Calm - N/A   Clear
3:53 AM 26.1 °F - 23.0 °F 88% 30.37 in 9.0 mi Calm Calm - N/A   Clear
4:53 AM 24.1 °F - 21.9 °F 91% 30.38 in 9.0 mi Calm Calm - N/A   Clear
5:53 AM 24.1 °F 17.0 °F 21.0 °F 88% 30.38 in 10.0 mi ESE 5.8 mph - N/A   Clear
6:53 AM 23.0 °F - 21.0 °F 92% 30.39 in 10.0 mi Calm Calm - N/A   Clear
7:53 AM 27.0 °F - 24.1 °F 89% 30.40 in 9.0 mi Calm Calm - N/A   Clear
8:53 AM 34.0 °F - 30.0 °F 85% 30.40 in 8.0 mi Calm Calm - N/A   Clear
10:53 AM 44.1 °F 38.6 °F 28.9 °F 55% 30.39 in 10.0 mi South 10.4 mph - N/A   Clear
11:53 AM 48.0 °F - 30.9 °F 52% 30.36 in 10.0 mi South 8.1 mph - N/A   Clear
12:53 PM 48.9 °F - 28.9 °F 46% 30.33 in 10.0 mi South 6.9 mph - N/A   Clear
1:53 PM 50.0 °F - 30.0 °F 46% 30.30 in 10.0 mi South 6.9 mph - N/A   Clear
2:53 PM 50.0 °F - 30.9 °F 48% 30.29 in 10.0 mi South 9.2 mph - N/A   Clear
3:53 PM 48.0 °F - 32.0 °F 54% 30.28 in 10.0 mi South 8.1 mph - N/A   Clear
4:53 PM 44.6 °F 41.4 °F 33.8 °F 66% 30.27 in 10.0 mi SSW 5.8 mph - N/A   Clear
5:53 PM 37.9 °F 35.5 °F 30.9 °F 76% 30.28 in 10.0 mi South 3.5 mph - N/A   Clear
6:53 PM 33.1 °F 27.7 °F 28.9 °F 85% 30.29 in 10.0 mi South 5.8 mph - N/A   Clear
7:53 PM 36.0 °F 31.1 °F 28.9 °F 76% 30.28 in 10.0 mi SSE 5.8 mph - N/A   Clear
8:53 PM 34.0 °F - 28.0 °F 79% 30.27 in 10.0 mi Calm Calm - N/A   Clear
9:53 PM 33.1 °F - 28.0 °F 82% 30.27 in 10.0 mi Calm Calm - N/A   Clear
10:53 PM 34.0 °F - 28.0 °F 79% 30.26 in 10.0 mi Calm Calm - N/A   Clear
11:53 PM 30.2 °F 26.7 °F 26.6 °F 86% 30.27 in 10.0 mi WSW 3.5 mph - N/A   Clear